Location: Earls Croome
(52.0667°N, 2.2000°W)
Time: 09:30:42
(UTC+00:00)

COSMOS 2455 - Pass Details

Date: 28 February 2020
Orbit: 901 x 909 km, 67.2° (Epoch: 07 April)

Event Time Altitude Azimuth Distance (km) Brightness Sun altitude
Exits shadow 00:22:13 12° 30° (NNE) 2,489 5.6 -46.2°
Drops below altitude 10° 00:22:39 10° 33° (NNE) 2,601 5.7 -46.2°
Sets 00:25:45 0° 48° (NE) 3,545 6.4 -46.2°
